{"data":{"norad_id":63756,"intl_designator":"2025-089F","name":"STARLINK-11688 [DTC]","alt_names":[],"object_type":"PAYLOAD","status":"ACTIVE","operator":null,"country":"US","launch_date":"2025-04-29","launch_site_code":"AFETR","launch_vehicle":null,"mission":null,"orbit_class":"UNKNOWN","rcs_meters":null,"size_class":null,"mass_kg":null,"dimensions":null,"purposes":["comms"],"wikipedia_slug":null,"has_3d_model":false,"image_url":null,"decayed_at":null,"tle_current":{"epoch":"2026-05-24T20:26:33.300384Z","epoch_age_seconds":81686,"freshness":"FRESH","line1":"1 63756U 25089F   26144.85177431  .00247454  00000+0  18697-2 0  9992","line2":"2 63756  43.0002 193.1802 0000395 350.2976   9.7884 15.70908197 62002","mean_motion":15.70908197,"eccentricity":3.95e-5,"inclination_deg":43.0002,"raan_deg":193.1802,"arg_perigee_deg":350.2976,"mean_anomaly_deg":9.7884,"bstar":0.0018697,"rev_number":6200,"period_min":91.666718828637,"perigee_km":356.03413856356,"apogee_km":356.56615909832,"semimajor_km":6734.4371488309,"source":"CELESTRAK","updated_at":"2026-05-25T13:38:20.103838Z"}}}